Regional Weather Roundup
Issued by NWS

Home | Current Version | Previous Version | Graphics & Text | Print | Product List | Glossary On
Versions: 1 2 3 4 5 6 7 8 9 10 11 12 13 14 15 16 17 18 19 20 21 22 23 24 25 26 27 28 29 30 31 32 33 34 35 36 37 38 39 40 41 42 43 44 45 46 47 48 49 50
000
ASUS43 KOAX 150502
RWRNE

WEATHER ROUNDUP FOR NEBRASKA
NATIONAL WEATHER SERVICE OMAHA NE
1100 PM CST THU DEC 14 2017

NOTES: SATELLITE DATA IS BEING USED TO AUGMENT CLOUD COVER ABOVE
       12000 FEET.
       "FAIR" INDICATES FEW OR NO CLOUDS BELOW 12,000 FEET WITH NO
       SIGNIFICANT WEATHER AND/OR OBSTRUCTIONS TO VISIBILITY.


NEZ001>004-019>022-054>056-150600-
NEBRASKA PANHANDLE

CITY           SKY/WX    TMP DP  RH WIND       PRES   REMARKS
SCOTTSBLUFF    CLOUDY    16  12  84 NE5       30.18F WCI   9
ALLIANCE       CLOUDY    12  10  92 W8        30.15F WCI   0
CHADRON        CLOUDY    16  13  88 SW7       30.15F WCI   6
GORDON         FAIR      17  14  89 W5        30.13F WCI  10
KIMBALL        CLOUDY    16  12  83 W9        30.18F WCI   5
SIDNEY         CLOUDY    13  10  88 W9        30.20S WCI   1
$$

NEZ057>060-069>072-079>082-150600-
SOUTHWEST NEBRASKA

CITY           SKY/WX    TMP DP  RH WIND       PRES   REMARKS
NORTH PLATTE   PTCLDY    26  22  84 NW6       30.20S WCI  19
IMPERIAL       CLEAR     25  19  78 W7        30.22F WCI  17
LEXINGTON      CLOUDY    34  28  78 NW8       30.20S WCI  27
MCCOOK         CLEAR     24  19  81 NW10      30.22F WCI  14
OGALLALA       CLEAR     19  17  89 W3        30.21S
$$

NEZ005>010-023>029-035>040-094-150600-
NORTH CENTRAL NEBRASKA

CITY           SKY/WX    TMP DP  RH WIND       PRES   REMARKS
VALENTINE      CLOUDY    30  26  85 W8        30.14F WCI  22
AINSWORTH      CLOUDY    30  28  94 W8        30.13F WCI  22
BROKEN BOW     CLOUDY    31  24  75 W7        30.17F WCI  24
O`NEILL        CLOUDY    31  28  90 W6        30.14S WCI  25
ORD            CLOUDY    29  22  75 NW9       30.16F WCI  20
THEDFORD       CLOUDY    28  26  90 W3        30.17F
$$

NEZ041-046>049-061>064-073>077-083>087-150600-
SOUTH CENTRAL NEBRASKA

CITY           SKY/WX    TMP DP  RH WIND       PRES   REMARKS
GRAND ISLAND   MOCLDY    31  27  85 NW12      30.18S WCI  22
AURORA         MOCLDY    31  29  94 NW8       30.17R WCI  23
HASTINGS       PTCLDY    31  27  85 NW12      30.19R WCI  22
HEBRON         PTCLDY    35  32  90 NW7       30.18R WCI  29
HOLDREGE       CLOUDY    32  29  89 NW6       30.19F WCI  27
KEARNEY        MOCLDY    32  28  85 NW7       30.20S WCI  26
$$

NEZ011>018-030>034-042>045-150600-
NORTHEAST NEBRASKA

CITY           SKY/WX    TMP DP  RH WIND       PRES   REMARKS
NORFOLK        CLOUDY    31  26  82 NW12G20   30.13F WCI  22
ALBION         CLOUDY    32  28  86 NW6       30.15F WCI  26
BLAIR          CLOUDY    34  28  77 NW7       30.12R WCI  28
COLUMBUS       CLOUDY    33  29  85 NW12      30.16S WCI  24
FREMONT        CLOUDY    35  29  79 NW15      30.15R WCI  25
TEKAMAH        CLOUDY    35  26  69 NW14G24   30.14R WCI  26
WAYNE          CLOUDY    31  29  94 NW3       30.13F
$$

NEZ050>053-065>068-078-088>093-150600-
SOUTHEAST NEBRASKA

CITY           SKY/WX    TMP DP  RH WIND       PRES   REMARKS
LINCOLN        CLOUDY    36  30  79 N10       30.16S WCI  28
OMAHA EPPLEY   MOCLDY    36  25  64 NW12      30.12S WCI  28
BEATRICE       CLOUDY    36  34  92 NW10      30.15S WCI  28
FALLS CITY     CLOUDY    37  31  78 NW9       30.13F WCI  30
NEBRASKA CITY  CLOUDY    37  32  84 NW7       30.13S WCI  31
PLATTSMOUTH    CLOUDY    37  28  71 NW15      30.12S WCI  27
$$

NEZ044-045-051>053-067-150600-
OMAHA AREA

CITY           SKY/WX    TMP DP  RH WIND       PRES   REMARKS
OMAHA EPPLEY   MOCLDY    36  25  64 NW12      30.12S WCI  28
BLAIR          CLOUDY    34  28  77 NW7       30.12R WCI  28
FREMONT        CLOUDY    35  29  79 NW15      30.15R WCI  25
MILLARD        CLOUDY    38  28  68 NW10G16   30.13S WCI  31
OFFUTT AFB     CLOUDY    37  25  61 NW13G23   30.12S WCI  29
PLATTSMOUTH    CLOUDY    37  28  71 NW15      30.12S WCI  27
WAHOO          CLOUDY    36  27  71 N14       30.14S WCI  27
$$




USA.gov is the U.S. government's official web portal to all federal, state and local government web resources and services.